SCP
0 0 0 0 0 0 0 0 0 0 0 0 0 0 0 0 0 0 0 0 0 0
0 0 0 0 0 0 0 0 0 0 0 0 0 0 0 0 0 0 0 0 0 0
0 0 0 0 0 0 0 0 0 0 0 0 0 0 0 0 0 0 0 0 0 0
0 0 0 0 0 0 0 0 0 0 0 0 0 0 0 0 0 0 0 0 0 0
0 0 0 0 0 0 0 0 0 0 0 0 0 0 0 0 0 0 0 0 0 0
0 0 0 0 0 0 0 0 0 0 0 0 0 0 0 0 0 0 0 0 0 0
0 0 0 0 0 0 0 0 0 0 0 0 0 0 0 0 0 0 0 0 0 0
0 0 0 0 0 0 0 0 0 0 0 0 0 0 0 0 0 0 0 0 0 0
0 0 -0 -0 -0 -0 -0 -0 0 0 0 0 0 0 0 0 0 0 0 0 0 0
0 0 0 0 0 0 0 0 0 0 0 0 0 0 0 0 0 0 0 0 0 0
0 0 0 0 0 0 -0 -0 0 -0 -0 -0 0 0 0 -0 0 0 0 0 0 0
0 0 0 0 0 0 -0 -0 -0 0 0 -0 -0 -0 -0 -0 -0 0 0 0 0 0
0 0 0 0 0 0 0 0 0 -0 -0 -0 -0 -0 -0 0 0 0 0 0 0 0
0 0 0 0 0 -0 -0 -0 -0 0 0 0 0 0 0 0 0 0 0 0 0 0
Wind_Speed_500mb
18 19 18 17 23 26 28 29 25 31 36 35 41 47 57 55 64 62 67 80 86 93
15 17 18 23 24 24 24 23 26 27 30 31 43 45 49 44 53 53 67 62 64 62
11 15 19 24 26 23 23 25 23 25 23 27 38 42 46 42 42 45 42 44 41 40
7 11 17 22 22 25 23 21 20 21 23 26 28 28 35 41 39 46 42 41 35 38
6 10 15 19 22 25 28 29 29 30 33 36 41 41 41 46 53 51 51 50 41 46
18 20 23 26 28 32 35 42 48 52 57 61 63 66 64 55 53 52 46 46 40 40
38 42 47 52 55 58 60 63 66 70 70 67 64 58 55 55 53 54 52 48 49 48
57 62 66 69 72 72 71 70 70 70 70 67 66 60 53 53 49 48 46 45 43 36
57 61 64 66 67 66 67 70 67 65 64 64 61 53 49 46 43 40 39 40 37 31
59 59 58 62 63 64 63 59 60 60 57 57 53 45 40 38 36 35 34 33 29 25
52 55 56 57 56 55 53 50 49 49 48 48 46 38 34 31 29 28 28 25 23 18
44 44 45 46 46 44 42 40 39 38 36 35 34 29 27 25 24 23 21 18 14 14
35 36 36 36 36 35 34 33 32 30 28 27 25 23 19 17 16 15 14 12 10 11
28 28 28 28 27 27 26 24 23 22 21 18 16 14 10 8 7 7 8 9 10 11
Wind_Direction_500mb
221 218 219 227 230 237 251 252 241 241 242 232 241 232 237 229 232 225 231 234 237 231
213 212 208 208 220 235 243 235 232 232 230 225 226 234 242 227 227 224 233 241 219 215
208 204 199 199 201 211 221 220 213 211 204 206 208 212 224 210 202 190 189 185 176 179
198 189 192 193 186 187 182 177 169 165 170 177 181 179 175 169 172 152 140 142 142 135
137 151 162 163 161 154 151 144 142 139 137 138 131 125 131 131 125 122 110 111 111 109
110 118 121 124 130 132 133 133 130 129 126 124 123 125 123 121 115 110 109 113 104 89
113 113 111 110 113 115 116 116 116 115 115 111 108 107 107 107 106 112 115 115 107 110
115 115 114 114 113 112 112 111 106 103 99 98 98 101 104 106 109 108 107 102 100 102
109 110 108 106 103 99 99 101 108 110 111 112 107 106 106 108 108 106 102 101 101 98
107 109 110 109 110 110 110 111 111 110 110 107 105 105 105 105 106 105 101 98 98 95
121 120 120 118 115 114 114 115 113 111 109 110 108 109 108 108 105 101 94 90 82 79
116 118 117 116 116 116 116 115 114 111 108 105 103 99 92 85 80 75 73 69 64 51
123 122 121 121 121 120 120 119 115 114 111 107 100 93 85 77 68 62 57 49 30 6
131 129 126 125 123 119 116 111 106 99 96 92 94 98 98 96 81 58 38 18 3 346
Wind_Speed_850mb
18 19 18 17 23 26 28 29 25 31 36 35 41 47 57 55 64 62 67 80 86 93
15 17 18 23 24 24 24 23 26 27 30 31 43 45 49 44 53 53 67 62 64 62
11 15 19 24 26 23 23 25 23 25 23 27 38 42 46 42 42 45 42 44 41 40
7 11 17 22 22 25 23 21 20 21 23 26 28 28 35 41 39 46 42 41 35 38
6 10 15 19 22 25 28 29 29 30 33 36 41 41 41 46 53 51 51 50 41 46
18 20 23 26 28 32 35 42 48 52 57 61 63 66 64 55 53 52 46 46 40 40
38 42 47 52 55 58 60 63 66 70 70 67 64 58 55 55 53 54 52 48 49 48
57 62 66 69 72 72 71 70 70 70 70 67 66 60 53 53 49 48 46 45 43 36
57 61 64 66 67 66 67 70 67 65 64 64 61 53 49 46 43 40 39 40 37 31
59 59 58 62 63 64 63 59 60 60 57 57 53 45 40 38 36 35 34 33 29 25
52 55 56 57 56 55 53 50 49 49 48 48 46 38 34 31 29 28 28 25 23 18
44 44 45 46 46 44 42 40 39 38 36 35 34 29 27 25 24 23 21 18 14 14
35 36 36 36 36 35 34 33 32 30 28 27 25 23 19 17 16 15 14 12 10 11
28 28 28 28 27 27 26 24 23 22 21 18 16 14 10 8 7 7 8 9 10 11
Wind_Direction_850mb
221 218 219 227 230 237 251 252 241 241 242 232 241 232 237 229 232 225 231 234 237 231
213 212 208 208 220 235 243 235 232 232 230 225 226 234 242 227 227 224 233 241 219 215
208 204 199 199 201 211 221 220 213 211 204 206 208 212 224 210 202 190 189 185 176 179
198 189 192 193 186 187 182 177 169 165 170 177 181 179 175 169 172 152 140 142 142 135
137 151 162 163 161 154 151 144 142 139 137 138 131 125 131 131 125 122 110 111 111 109
110 118 121 124 130 132 133 133 130 129 126 124 123 125 123 121 115 110 109 113 104 89
113 113 111 110 113 115 116 116 116 115 115 111 108 107 107 107 106 112 115 115 107 110
115 115 114 114 113 112 112 111 106 103 99 98 98 101 104 106 109 108 107 102 100 102
109 110 108 106 103 99 99 101 108 110 111 112 107 106 106 108 108 106 102 101 101 98
107 109 110 109 110 110 110 111 111 110 110 107 105 105 105 105 106 105 101 98 98 95
121 120 120 118 115 114 114 115 113 111 109 110 108 109 108 108 105 101 94 90 82 79
116 118 117 116 116 116 116 115 114 111 108 105 103 99 92 85 80 75 73 69 64 51
123 122 121 121 121 120 120 119 115 114 111 107 100 93 85 77 68 62 57 49 30 6
131 129 126 125 123 119 116 111 106 99 96 92 94 98 98 96 81 58 38 18 3 346